Time,TemperatureF,DewpointF,PressureIn,WindDirection,WindDirectionDegrees,WindSpeedMPH,WindSpeedGustMPH,Humidity,HourlyPrecipIn,Conditions,Clouds,dailyrainin,SolarRadiationWatts/m^2,SoftwareType,DateUTC
2013-12-17 00:11:00,-1.0,-6.0,-100.00,WNW,289,1.0,2.0,78,0.00,,,-99.99,0.000000,,2013-12-17 09:11:00,
2013-12-17 00:22:00,-1.0,-6.0,-100.00,WNW,289,1.0,2.0,78,0.00,,,-99.99,0.000000,,2013-12-17 09:22:00,
2013-12-17 00:33:00,-1.0,-6.0,-100.00,WNW,289,1.0,2.0,78,0.00,,,-99.99,0.000000,,2013-12-17 09:33:00,
2013-12-17 00:43:00,-2.0,-7.0,-100.00,West,267,1.0,2.0,77,0.00,,,-99.99,0.000000,,2013-12-17 09:43:00,
2013-12-17 01:13:00,-2.0,-7.0,-100.00,West,267,1.0,2.0,77,0.00,,,-99.99,0.000000,,2013-12-17 10:13:00,
2013-12-17 01:23:00,-2.0,-7.0,-100.00,West,267,1.0,2.0,77,0.00,,,-99.99,0.000000,,2013-12-17 10:23:00,
2013-12-17 01:33:00,-2.0,-7.0,-100.00,West,267,1.0,2.0,77,0.00,,,-99.99,0.000000,,2013-12-17 10:33:00,
2013-12-17 02:11:00,-3.0,-9.0,-100.00,West,265,2.0,2.0,76,0.00,,,0.00,0.000000,,2013-12-17 11:11:00,
2013-12-17 02:22:00,-3.0,-9.0,-100.00,West,265,2.0,2.0,76,0.00,,,0.00,0.000000,,2013-12-17 11:22:00,
2013-12-17 02:33:00,-3.0,-9.0,-100.00,West,265,2.0,2.0,76,0.00,,,0.00,0.000000,,2013-12-17 11:33:00,
2013-12-17 02:42:00,-3.0,-9.0,-100.00,West,265,2.0,2.0,76,0.00,,,0.00,0.000000,,2013-12-17 11:42:00,
2013-12-17 03:11:00,-4.0,-10.0,-100.00,WNW,287,1.0,2.0,75,0.00,,,0.00,0.000000,,2013-12-17 12:11:00,
2013-12-17 03:22:00,-4.0,-10.0,-100.00,WNW,287,1.0,2.0,75,0.00,,,0.00,0.000000,,2013-12-17 12:22:00,
2013-12-17 03:32:00,-4.0,-10.0,-100.00,WNW,287,1.0,2.0,75,0.00,,,0.00,0.000000,,2013-12-17 12:32:00,
2013-12-17 03:42:00,-4.0,-10.0,-100.00,WNW,287,1.0,2.0,75,0.00,,,0.00,0.000000,,2013-12-17 12:42:00,
2013-12-17 04:11:00,-4.0,-9.0,-100.00,West,278,1.0,2.0,76,0.00,,,0.00,0.000000,,2013-12-17 13:11:00,
2013-12-17 04:21:00,-4.0,-9.0,-100.00,West,278,1.0,2.0,76,0.00,,,0.00,0.000000,,2013-12-17 13:21:00,
2013-12-17 04:34:00,-4.0,-9.0,-100.00,West,278,1.0,2.0,76,0.00,,,0.00,0.000000,,2013-12-17 13:34:00,
2013-12-17 04:42:00,-4.0,-9.0,-100.00,West,278,1.0,2.0,76,0.00,,,0.00,0.000000,,2013-12-17 13:42:00,
2013-12-17 05:11:00,-3.0,-9.0,-100.00,WNW,288,1.0,2.0,76,0.00,,,0.00,0.000000,,2013-12-17 14:11:00,
2013-12-17 05:21:00,-3.0,-9.0,-100.00,WNW,288,1.0,2.0,76,0.00,,,0.00,0.000000,,2013-12-17 14:21:00,
2013-12-17 05:32:00,-3.0,-9.0,-100.00,WNW,288,1.0,2.0,76,0.00,,,0.00,0.000000,,2013-12-17 14:32:00,
2013-12-17 05:42:00,-3.0,-9.0,-100.00,WNW,288,1.0,2.0,76,0.00,,,0.00,0.000000,,2013-12-17 14:42:00,
2013-12-17 05:43:00,-3.0,-9.0,-100.00,WNW,284,1.0,2.0,76,0.00,,,-99.99,0.000000,,2013-12-17 14:43:00,
2013-12-17 06:21:00,-3.0,-9.0,-100.00,WNW,284,1.0,2.0,76,0.00,,,-99.99,0.000000,,2013-12-17 15:21:00,
2013-12-17 06:33:00,-3.0,-9.0,-100.00,WNW,284,1.0,2.0,76,0.00,,,-99.99,0.000000,,2013-12-17 15:33:00,
2013-12-17 06:43:00,-4.0,-10.0,-100.00,WNW,287,1.0,2.0,75,0.00,,,0.00,0.000000,,2013-12-17 15:43:00,
2013-12-17 07:13:00,-4.0,-10.0,-100.00,WNW,287,1.0,2.0,75,0.00,,,0.00,0.000000,,2013-12-17 16:13:00,
2013-12-17 07:23:00,-4.0,-10.0,-100.00,WNW,287,1.0,2.0,75,0.00,,,0.00,0.000000,,2013-12-17 16:23:00,
2013-12-17 07:33:00,-4.0,-10.0,-100.00,WNW,287,1.0,2.0,75,0.00,,,0.00,0.000000,,2013-12-17 16:33:00,
2013-12-17 08:12:00,-4.0,-10.0,-100.00,WNW,286,1.0,2.0,75,0.00,,,0.00,0.000000,,2013-12-17 17:12:00,
2013-12-17 08:22:00,-4.0,-10.0,-100.00,WNW,286,1.0,2.0,75,0.00,,,0.00,0.000000,,2013-12-17 17:22:00,
2013-12-17 08:33:00,-4.0,-10.0,-100.00,WNW,286,1.0,2.0,75,0.00,,,0.00,0.000000,,2013-12-17 17:33:00,
2013-12-17 08:42:00,-4.0,-10.0,-100.00,WNW,286,1.0,2.0,75,0.00,,,0.00,0.000000,,2013-12-17 17:42:00,
2013-12-17 09:11:00,-4.0,-10.0,-100.00,WNW,282,1.0,1.0,75,0.00,,,-99.99,0.000000,,2013-12-17 18:11:00,
2013-12-17 09:21:00,-4.0,-10.0,-100.00,WNW,282,1.0,1.0,75,0.00,,,-99.99,0.000000,,2013-12-17 18:21:00,
2013-12-17 09:32:00,-4.0,-10.0,-100.00,WNW,282,1.0,1.0,75,0.00,,,-99.99,0.000000,,2013-12-17 18:32:00,
2013-12-17 09:42:00,-4.0,-10.0,-100.00,WNW,282,1.0,1.0,75,0.00,,,-99.99,0.000000,,2013-12-17 18:42:00,
2013-12-17 10:11:00,-3.0,-9.0,-100.00,West,267,1.0,2.0,76,0.00,,,0.00,0.000000,,2013-12-17 19:11:00,
2013-12-17 10:21:00,-3.0,-9.0,-100.00,West,267,1.0,2.0,76,0.00,,,0.00,0.000000,,2013-12-17 19:21:00,
2013-12-17 10:32:00,-3.0,-9.0,-100.00,West,267,1.0,2.0,76,0.00,,,0.00,0.000000,,2013-12-17 19:32:00,
2013-12-17 10:42:00,-3.0,-9.0,-100.00,West,267,1.0,2.0,76,0.00,,,0.00,0.000000,,2013-12-17 19:42:00,
2013-12-17 11:11:00,0.0,-6.0,-100.00,SW,231,1.0,2.0,78,0.00,,,-99.99,2.200000,,2013-12-17 20:11:00,
2013-12-17 11:22:00,0.0,-6.0,-100.00,SW,231,1.0,2.0,78,0.00,,,-99.99,2.200000,,2013-12-17 20:22:00,
2013-12-17 11:31:00,0.0,-6.0,-100.00,SW,231,1.0,2.0,78,0.00,,,-99.99,2.200000,,2013-12-17 20:31:00,
2013-12-17 11:42:00,0.0,-6.0,-100.00,SW,231,1.0,2.0,78,0.00,,,-99.99,2.200000,,2013-12-17 20:42:00,
2013-12-17 11:43:00,1.0,-4.0,-100.00,SSW,212,1.0,1.0,78,0.00,,,0.00,4.000000,,2013-12-17 20:43:00,
2013-12-17 12:11:00,1.0,-4.0,-100.00,SSW,212,1.0,1.0,78,0.00,,,0.00,4.000000,,2013-12-17 21:11:00,
2013-12-17 12:22:00,1.0,-4.0,-100.00,SSW,212,1.0,1.0,78,0.00,,,0.00,4.000000,,2013-12-17 21:22:00,
2013-12-17 12:33:00,1.0,-4.0,-100.00,SSW,212,1.0,1.0,78,0.00,,,0.00,4.000000,,2013-12-17 21:33:00,
2013-12-17 13:12:00,2.0,-3.0,-100.00,SSW,192,1.0,2.0,79,0.00,,,0.00,6.600000,,2013-12-17 22:12:00,
2013-12-17 13:23:00,2.0,-3.0,-100.00,SSW,192,1.0,2.0,79,0.00,,,0.00,6.600000,,2013-12-17 22:23:00,
2013-12-17 13:34:00,2.0,-3.0,-100.00,SSW,192,1.0,2.0,79,0.00,,,0.00,6.600000,,2013-12-17 22:34:00,
2013-12-17 13:42:00,2.0,-3.0,-100.00,SSW,192,1.0,2.0,79,0.00,,,0.00,6.600000,,2013-12-17 22:42:00,
2013-12-17 14:11:00,3.0,-2.0,-100.00,WNW,302,1.0,2.0,79,0.00,,,0.00,9.000000,,2013-12-17 23:11:00,
2013-12-17 14:22:00,3.0,-2.0,-100.00,WNW,302,1.0,2.0,79,0.00,,,0.00,9.000000,,2013-12-17 23:22:00,
2013-12-17 14:33:00,3.0,-2.0,-100.00,WNW,302,1.0,2.0,79,0.00,,,0.00,9.000000,,2013-12-17 23:33:00,
2013-12-17 14:42:00,3.0,-2.0,-100.00,WNW,302,1.0,2.0,79,0.00,,,0.00,9.000000,,2013-12-17 23:42:00,
2013-12-17 15:12:00,2.0,-3.0,-100.00,WNW,301,1.0,2.0,79,0.00,,,0.00,6.300000,,2013-12-18 00:12:00,
2013-12-17 15:22:00,2.0,-3.0,-100.00,WNW,301,1.0,2.0,79,0.00,,,0.00,6.300000,,2013-12-18 00:22:00,
2013-12-17 15:32:00,2.0,-3.0,-100.00,WNW,301,1.0,2.0,79,0.00,,,0.00,6.300000,,2013-12-18 00:32:00,
2013-12-17 15:42:00,2.0,-3.0,-100.00,WNW,301,1.0,2.0,79,0.00,,,0.00,6.300000,,2013-12-18 00:42:00,
2013-12-17 16:11:00,2.0,-3.0,-100.00,WNW,297,1.0,1.0,79,0.00,,,0.00,4.000000,,2013-12-18 01:11:00,
2013-12-17 16:22:00,2.0,-3.0,-100.00,WNW,297,1.0,1.0,79,0.00,,,0.00,4.000000,,2013-12-18 01:22:00,
2013-12-17 16:32:00,2.0,-3.0,-100.00,WNW,297,1.0,1.0,79,0.00,,,0.00,4.000000,,2013-12-18 01:32:00,
2013-12-17 16:42:00,2.0,-3.0,-100.00,WNW,297,1.0,1.0,79,0.00,,,0.00,4.000000,,2013-12-18 01:42:00,
2013-12-17 17:11:00,2.0,-3.0,-100.00,NW,311,1.0,2.0,79,0.00,,,0.00,0.600000,,2013-12-18 02:11:00,
2013-12-17 17:21:00,2.0,-3.0,-100.00,NW,311,1.0,2.0,79,0.00,,,0.00,0.600000,,2013-12-18 02:21:00,
2013-12-17 17:32:00,2.0,-3.0,-100.00,NW,311,1.0,2.0,79,0.00,,,0.00,0.600000,,2013-12-18 02:32:00,
2013-12-17 17:42:00,2.0,-3.0,-100.00,NW,311,1.0,2.0,79,0.00,,,0.00,0.600000,,2013-12-18 02:42:00,
2013-12-17 17:43:00,3.0,-1.0,-100.00,WNW,298,1.0,1.0,80,0.00,,,0.00,0.000000,,2013-12-18 02:43:00,
2013-12-17 18:11:00,3.0,-1.0,-100.00,WNW,298,1.0,1.0,80,0.00,,,0.00,0.000000,,2013-12-18 03:11:00,
2013-12-17 18:22:00,3.0,-1.0,-100.00,WNW,298,1.0,1.0,80,0.00,,,0.00,0.000000,,2013-12-18 03:22:00,
2013-12-17 18:33:00,3.0,-1.0,-100.00,WNW,298,1.0,1.0,80,0.00,,,0.00,0.000000,,2013-12-18 03:33:00,
2013-12-17 18:43:00,5.0,1.0,-100.00,West,277,1.0,1.0,81,0.00,,,0.00,0.000000,,2013-12-18 03:43:00,
2013-12-17 19:13:00,5.0,1.0,-100.00,West,277,1.0,1.0,81,0.00,,,0.00,0.000000,,2013-12-18 04:13:00,
2013-12-17 19:23:00,5.0,1.0,-100.00,West,277,1.0,1.0,81,0.00,,,0.00,0.000000,,2013-12-18 04:23:00,
2013-12-17 19:33:00,5.0,1.0,-100.00,West,277,1.0,1.0,81,0.00,,,0.00,0.000000,,2013-12-18 04:33:00,
2013-12-17 21:12:00,8.0,3.0,-100.00,WSW,248,1.0,2.0,83,-99.99,,,-99.99,0.000000,,2013-12-18 06:12:00,
2013-12-17 21:22:00,8.0,3.0,-100.00,WSW,248,1.0,2.0,83,-99.99,,,-99.99,0.000000,,2013-12-18 06:22:00,
2013-12-17 21:32:00,8.0,3.0,-100.00,WSW,248,1.0,2.0,83,-99.99,,,-99.99,0.000000,,2013-12-18 06:32:00,
2013-12-17 21:42:00,8.0,3.0,-100.00,WSW,248,1.0,2.0,83,-99.99,,,-99.99,0.000000,,2013-12-18 06:42:00,
2013-12-17 22:11:00,11.0,7.0,-100.00,SSW,201,1.0,2.0,85,0.00,,,0.00,0.000000,,2013-12-18 07:11:00,
2013-12-17 22:22:00,11.0,7.0,-100.00,SSW,201,1.0,2.0,85,0.00,,,0.00,0.000000,,2013-12-18 07:22:00,
2013-12-17 22:32:00,11.0,7.0,-100.00,SSW,201,1.0,2.0,85,0.00,,,0.00,0.000000,,2013-12-18 07:32:00,
2013-12-17 22:42:00,11.0,7.0,-100.00,SSW,201,1.0,2.0,85,0.00,,,0.00,0.000000,,2013-12-18 07:42:00,
2013-12-17 23:12:00,12.0,9.0,-100.00,North,-999,0.0,2.0,85,0.00,,,0.00,0.000000,,2013-12-18 08:12:00,
2013-12-17 23:21:00,12.0,9.0,-100.00,North,-999,0.0,2.0,85,0.00,,,0.00,0.000000,,2013-12-18 08:21:00,
2013-12-17 23:33:00,12.0,9.0,-100.00,North,-999,0.0,2.0,85,0.00,,,0.00,0.000000,,2013-12-18 08:33:00,
2013-12-17 23:42:00,12.0,9.0,-100.00,North,-999,0.0,2.0,85,0.00,,,0.00,0.000000,,2013-12-18 08:42:00,
2013-12-17 23:43:00,12.0,9.0,-100.00,North,-999,0.0,1.0,85,0.00,,,0.00,0.000000,,2013-12-18 08:43:00,